Location: Unspecified
(48.2082°N, 0.0000°E)
Time: 02:09:30
(UTC+00:00)

S-56A Canister/Altair - Pass Details

Date: 22 June 2019
Orbit: 633 x 2499 km, 38.9° (Epoch: 17 August)

Event Time Altitude Azimuth Distance (km) Brightness Sun altitude
Rises 15:34:00 0° 226° (SW) 5,228 12.4 41.6°
Reaches altitude 10° 15:38:24 10° 217° (SW) 3,908 11.8 40.9°
Maximum altitude 15:46:14 29° 163° (SSE) 2,154 10.0 39.6°
Drops below altitude 10° 15:51:56 10° 106° (ESE) 2,779 10.0 38.7°
Sets 15:54:30 0° 94° (E) 3,519 10.5 38.3°
